Regional Weather Roundup
Issued by NWS Green Bay, WI

Home | Current Version | Previous Version | Text Only | Print | Product List | Glossary On
Versions: 1 2 3 4 5 6 7 8 9 10 11 12 13 14 15 16 17 18 19 20 21 22 23 24 25 26 27 28 29 30 31 32 33 34 35 36 37 38 39 40 41 42 43 44 45 46 47 48 49 50
000
ASUS43 KGRB 220910
RWRGRB

NORTH-CENTRAL AND NORTHEAST WISCONSIN REGIONAL WEATHER ROUNDUP
NATIONAL WEATHER SERVICE GREEN BAY WI
400 AM CDT TUE JUL 22 2014

WIZ005-009-010>012-018-019-221000-
NORTH CENTRAL WISCONSIN

CITY           SKY/WX    TMP DP  RH WIND       PRES   REMARKS
IRONWOOD       CLOUDY    70  63  78 SW18G24   29.83S THUNDER
MANITOWISH WTR CLOUDY    72  68  89 S7        29.86F
ARBOR VITAE    CLOUDY    72  67  85 S9        29.87F
EAGLE RIVER    LGT RAIN  72  65  80 S5        29.89F
LAND O LAKES   CLOUDY    73  67  82 S5        29.89F
RHINELANDER    CLOUDY    73  67  81 SW12      29.90F
PHILLIPS       CLOUDY    74  69  86 S8        29.84F
ANTIGO         CLOUDY    69  67  93 S10       29.93F
TOMAHAWK       CLOUDY    72  67  83 CALM      29.90F
MERRILL        CLOUDY    73  69  87 S8        29.89F
$$

WIZ013-073-221000-
NORTHEAST WISCONSIN

CITY           SKY/WX    TMP DP  RH WIND       PRES   REMARKS
IRON MOUNTAIN  MOCLDY    70  67  90 SE9       29.88F FOG
MARINETTE      CLEAR     72  64  78 SW12      29.92F
OCONTO         MOCLDY    71  68  90 S6        29.93F
$$

WIZ017-030-035>037-045-221000-
CENTRAL WISCONSIN

CITY           SKY/WX    TMP DP  RH WIND       PRES   REMARKS
MEDFORD        CLOUDY    73  68  84 S12       29.89S
WAUSAU         CLOUDY    73  68  84 S14       29.88F
MOSINEE        CLOUDY    70  68  94 S9        29.91F
MARSHFIELD     CLOUDY    73  68  84 S15G24    29.87F
WISC RAPIDS    CLOUDY    74  68  81 S6        29.92F
STEVENS POINT  CLOUDY    71  66  85 S13       29.92F
WAUPACA        PTCLDY    73  69  87 S9        29.94F
SHAWANO        MOCLDY    74  68  81 S5        29.93F
CLINTONVILLE   PTCLDY    72  68  88 S9        29.92F
$$

WIZ038-039-048-051-221000-
FOX VALLEY

CITY           SKY/WX    TMP DP  RH WIND       PRES   REMARKS
NWS GREEN BAY  PTCLDY    71  67  87 S8        29.95F
APPLETON       PTCLDY    73  66  78 S14       29.96F
OSHKOSH        CLOUDY    73  68  84 S13       29.96S
FOND DU LAC    MOCLDY    73  67  81 S13G22    29.98S
$$

WIZ022-050-052-221000-
EAST CENTRAL WISCONSIN

CITY           SKY/WX    TMP DP  RH WIND       PRES   REMARKS
STURGEON BAY   CLEAR     68  63  83 S9        29.96F
MANITOWOC      CLEAR     61  59  93 CALM      29.98S FOG
SHEBOYGAN      CLEAR     70  66  87 S9        29.99S
$$

LMZ563-521-522-541>543-221000-
LAKESHORE

STATION/POSITION TIME  TEMP    WIND        PRES    VSBY  WAVE
                       AIR SEA DIR/SP/G                  HT/PER
                 (UTC) (F)     (DEG/KT/KT) (MB)    (MI)  (FT/S)
SHEBOYGAN LKSHOR 0900   68     180/ 12/ 13 1015.3F
KEWAUNEE LKSHORE 0900   56     180/  7/  9 1015.6R
NORTHPORT PIER   0900   63     160/  6/  9 1013.9F
N MID LAKE BUOY  0900   62 56  200/ 14/ 16 1013.8F         2/ 4
CHAMBERS ISLAND  0900   72     170/  6/ 13 1013.5F
MENOMINEE LKSHOR 0900   71     170/  9/ 13 1014.1F
$$



USA.gov is the U.S. government's official web portal to all federal, state and local government web resources and services.